www.pogodaiklimat.ru

Погода и климат >> Архив погоды >> Австралия >> Виктория >> Ярравонга


ПОГОДА в Ярравонге

  • Прогноз погоды в Ярравонге
  • Монитор погоды в Ярравонге

АРХИВ ПОГОДЫ в Ярравонге

Время (UTC), дата Ветер
(напр.,м/с)
 
Видим.   Явления Облачность Т
(С)
Тd
(С)
f
(%)
Тe
(С)
Тes
(С)
Комфортность P
(гПа)
Po
(гПа)
Тmin
(С)
Tmax
(С)
R
(мм)
R24
(мм)
S
(см)
16 10.08 З 7 н/о н/о +6.1 +5.2 94 +1 +1 1004.0 988.5
17 10.08 З 7 н/о н/о +6.1 +5.4 95 +1 +1 1003.5 988.0
19 10.08 З 7 н/о н/о +5.3 +5.0 98 -0 -0 1003.9 988.4
20 10.08 З 6 н/о {туман} н/о +5.2 +4.8 97 0 0 1004.2 988.7
22 10.08 З 6 н/о н/о +5.0 +4.6 97 -0 -0 1005.8 990.3
23 10.08 З 6 н/о {туман} н/о +5.0 +4.0 93 -0 -0 1007.2 991.7
01 11.08 ЮЗ 6 н/о н/о +7.6 +3.8 77 +3 +3 1008.6 993.1
02 11.08 ЮЗ 7 н/о н/о +8.2 +3.7 73 +4 +4 1009.2 993.7 +4.3
04 11.08 ЮЗ 7 н/о н/о +10.4 +5.0 69 +7 +7 1010.1 994.5
05 11.08 ЮЗ 7 н/о н/о +10.3 +4.2 66 +7 +7 1010.7 995.1
07 11.08 ЮЗ 5 н/о н/о +9.6 +5.6 76 +7 +7 1012.2 996.6
08 11.08 З 4 н/о н/о +8.0 +5.6 85 +5 +5 1013.2 997.6
10 11.08 ЮЗ 5 н/о н/о +7.2 +6.5 95 +3 +3 1014.9 999.3
11 11.08 ЮЗ 4 н/о н/о +6.3 +6.2 99 +2 +2 1015.8 1000.2
13 11.08 З 4 н/о н/о +5.8 +5.7 99 +2 +2 1017.2 1001.5
14 11.08 З 4 н/о н/о +5.3 +5.2 99 +1 +1 1017.9 1002.2 +11.2
16 11.08 штиль 0 н/о н/о +3.9 +3.8 99 +3 +3 1018.8 1003.1
17 11.08 СЗ 2 н/о н/о +3.6 +3.5 99 +1 +1 1018.8 1003.1
19 11.08 З 3 н/о н/о +2.5 +2.4 99 -2 -2 1019.1 1003.4
20 11.08 ЮВ 2 н/о н/о +1.7 +1.6 99 -2 -2 1019.6 1003.9
22 11.08 Ю 1 н/о н/о +2.0 +1.9 99 +1 +1 1021.7 1006.0
23 11.08 штиль 0 н/о {туман} н/о +5.2 +5.2 100 +4 +4 1022.6 1006.8
01 12.08 ЮЗ 5 н/о н/о +11.1 +8.1 82 +8 +8 1023.7 1007.9
02 12.08 ЮЗ 5 н/о н/о +13.1 +8.0 71 +11 +11 1023.6 1007.8 +0.2
04 12.08 ЮЗ 5 н/о н/о +13.8 +7.8 67 +12 +12 1023.0 1007.2
05 12.08 ЮЗ 6 н/о н/о +13.0 +5.9 62 +11 +11 1023.1 1007.3
07 12.08 ЮЗ 3 н/о н/о +11.1 +5.8 70 +9 +9 1023.6 1007.8
08 12.08 ЮЗ 2 н/о н/о +7.7 +5.5 86 +6 +6 1024.0 1008.2
10 12.08 З 2 н/о н/о +7.2 +4.9 85 +5 +5 1024.9 1009.1
11 12.08 З 3 н/о н/о +6.4 +4.1 85 +3 +3 1025.4 1009.6
13 12.08 0 н/о 1025.7 1009.9
14 12.08 0 н/о 1025.7 1009.9 +14.5
16 12.08 0 н/о 1025.4 1009.6
17 12.08 0 н/о 1025.4 1009.6
19 12.08 0 н/о 1025.6 1009.8
20 12.08 0 н/о 1026.2 1010.4
22 12.08 0 н/о 1027.8 1012.0
23 12.08 0 н/о 1028.2 1012.4
01 13.08 0 н/о 1028.4 1012.6
02 13.08 0 н/о 1028.0 1012.2
04 13.08 З 3 н/о 1026.8 1011.0
05 13.08 0 н/о 1026.8 1011.0
08 13.08 0 н/о 1027.5 1011.7
10 13.08 0 н/о 1028.3 1012.5
11 13.08 0 н/о 1028.4 1012.6
13 13.08 СВ 2 н/о н/о +8.3 +8.2 99 +7 +7 1028.7 1012.9
14 13.08 штиль 0 н/о н/о +8.6 +8.2 97 +8 +8 1028.6 1012.8
16 13.08 З 1 н/о н/о +7.9 +7.8 99 +8 +8 1028.2 1012.4
17 13.08 С 1 н/о н/о +7.5 +7.4 99 +7 +7 1028.0 1012.2
19 13.08 С 2 н/о н/о +7.0 +6.9 99 +5 +5 1028.4 1012.6
20 13.08 С 2 н/о н/о +7.0 +6.9 99 +5 +5 1029.0 1013.1
22 13.08 СВ 1 н/о н/о +7.0 +6.9 99 +6 +6 1029.8 1013.9
23 13.08 СВ 1 н/о н/о +7.8 +7.7 99 +7 +7 1029.6 1013.7
01 14.08 С 3 н/о н/о +11.1 +8.3 83 +9 +9 1029.4 1013.5
02 14.08 С 3 н/о н/о +11.0 +7.5 79 +9 +9 1028.7 1012.9
04 14.08 С 3 н/о н/о +12.3 +5.5 63 +11 +11 1026.8 1011.0
05 14.08 С 4 н/о н/о +11.5 +5.6 67 +10 +10 1026.6 1010.8
07 14.08 СЗ 2 н/о н/о +10.5 +4.0 64 +9 +9 1026.6 1010.8
08 14.08 0 н/о 1026.8 1011.0
10 14.08 0 н/о 1027.2 1011.4
11 14.08 0 н/о 1027.2 1011.4
13 14.08 0 н/о 1026.9 1011.1
14 14.08 0 н/о 1026.8 1011.0
16 14.08 0 н/о 1026.8 1011.0
17 14.08 0 н/о 1026.3 1010.5
19 14.08 0 н/о 1026.2 1010.4
20 14.08 0 н/о 1026.0 1010.2
22 14.08 0 н/о 1026.4 1010.6
23 14.08 0 {туман} н/о 1026.6 1010.8
01 15.08 0 н/о 1026.1 1010.3
02 15.08 С 3 н/о н/о +12.5 +6.5 67 +11 +11 1025.4 1009.6
04 15.08 С 3 н/о н/о +15.6 +6.6 55 +15 +15 1023.3 1007.5
05 15.08 С 4 н/о н/о +15.7 +5.3 50 +15 +15 1022.8 1007.0
07 15.08 С 1 н/о н/о +14.4 +7.5 63 +15 +15 1022.3 1006.6
08 15.08 СВ 2 н/о н/о +10.2 +6.5 78 +9 +9 1022.3 1006.6
10 15.08 В 4 н/о н/о +8.9 +7.2 89 +6 +6 1022.3 1006.6
11 15.08 СВ 3 н/о н/о +9.0 +7.1 88 +6 +6 1022.1 1006.4
13 15.08 СВ 2 н/о н/о +7.2 +6.0 92 +5 +5 1022.1 1006.4
14 15.08 СВ 2 н/о н/о +6.7 +5.7 93 +4 +4 1021.3 1005.6
16 15.08 СВ 3 н/о н/о +6.6 +5.4 92 +4 +4 1020.3 1004.6
17 15.08 СВ 3 н/о н/о +6.1 +5.1 93 +3 +3 1019.2 1003.5
19 15.08 В 2 н/о н/о +5.4 +5.3 99 +3 +3 1019.0 1003.3
20 15.08 СВ 5 н/о н/о +7.5 +5.3 86 +4 +4 1017.9 1002.2
22 15.08 СВ 3 н/о н/о +7.5 +5.5 87 +5 +5 1019.1 1003.4
23 15.08 СВ 3 н/о н/о +7.8 +5.9 88 +5 +5 1019.0 1003.3
01 16.08 СВ 4 н/о н/о +12.4 +7.9 74 +10 +10 1016.8 1001.1
02 16.08 СВ 2 н/о н/о +12.6 +6.6 67 +12 +12 1016.7 1001.0
04 16.08 ЮЗ 1 н/о н/о +14.7 +8.6 67 +15 +15 1015.3 999.7
05 16.08 СЗ 2 н/о н/о +14.7 +5.8 55 +15 +15 1014.9 999.3
07 16.08 З 1 н/о н/о +14.7 +6.5 58 +15 +15 1015.2 999.6
08 16.08 СЗ 2 н/о н/о +12.7 +6.1 64 +12 +12 1015.4 999.8
10 16.08 ЮЗ 4 н/о н/о +9.4 +9.3 99 +6 +6 1017.5 1001.8
11 16.08 ЮЗ 4 н/о в посл. час дождь {туман} н/о +7.7 +7.6 99 +4 +4 1018.3 1002.6
13 16.08 ЮЗ 4 н/о н/о +6.8 +6.7 99 +3 +3 1019.1 1003.4
14 16.08 ЮЗ 3 н/о н/о +4.5 +4.4 99 +1 +1 1019.3 1003.6 +15.5
16 16.08 З 3 н/о н/о +4.5 +4.4 99 +1 +1 1019.1 1003.4
17 16.08 ЮЗ 3 н/о в посл. час дождь {туман} н/о +3.4 +3.3 99 -1 -1 1018.7 1003.0
19 16.08 Ю 2 н/о н/о +1.1 +1.0 99 -2 -2 1019.0 1003.3
20 16.08 С 3 н/о н/о +1.0 +0.9 99 -3 -3 1019.7 1004.0
22 16.08 0 н/о 1021.1 1005.4
23 16.08 0 н/о 1021.3 1005.6
01 17.08 В 2 н/о н/о +10.6 +7.5 81 +10 +10 1021.2 1005.5
02 17.08 СВ 2 н/о н/о +12.5 +8.8 78 +12 +12 1020.5 1004.8
04 17.08 В 3 н/о н/о +13.9 +8.7 71 +13 +13 1018.6 1002.9
05 17.08 В 3 н/о н/о +14.2 +8.4 68 +13 +13 1018.4 1002.7
07 17.08 С 2 н/о н/о +12.9 +8.6 75 +12 +12 1018.3 1002.6
08 17.08 СВ 2 н/о н/о +8.5 +7.1 91 +6 +6 1018.2 1002.5
10 17.08 СВ 2 н/о н/о +6.8 +6.7 99 +4 +4 1018.2 1002.5
11 17.08 С 2 н/о н/о +5.7 +5.4 98 +3 +3 1018.5 1002.8
13 17.08 ЮВ 1 н/о н/о +3.3 +3.2 99 +1 +1 1018.3 1002.6
14 17.08 В 2 н/о н/о +2.8 +2.7 99 -1 -1 1017.8 1002.1

 

Местоположение метеостанции Ярравонга (Виктория, Австралия): широта -36.02 долгота 146.03 высота над уровнем моря 125 м.

В архиве по умолчанию представлена погода в Ярравонге за последнюю неделю. Архивные данные за месяц целиком и за предыдущие месяцы, начиная с января 2011 года, Вы можете получить, выбрав интересующий диапазон дат из раскрывающегося списка и нажав кнопку "Ввод!".


*Определитесь, кто Вы:
робот инопланетянин человек

Внимание! Время в таблицах - всемирное. Для получения местного времени необходимо прибавить поправку, которая равна 10 ч.

Смотрите также архив погоды в соседних городах и на ближайших метеорологических станциях:

Погода в Рутерглене (Виктория, Австралия) (43 км)
Погода в Вангаратте (Виктория, Австралия) (51 км)
Погода в Шеппартоне (Виктория, Австралия) (73 км)
Погода в Татуре (Виктория, Австралия) (82 км)
Погода в Олбери (Новый Южный Уэльс, Австралия) (83 км)
Погода в Кайабраме (Виктория, Австралия) (93 км)
Погода в Дениликине (Новый Южный Уэльс, Австралия) (110 км)
Погода в Мангалоре (Виктория, Австралия) (122 км)
Погода на Маунт Буллер (Виктория, Австралия) (131 км)
Погода в Эйлдоне (Виктория, Австралия) (135 км)

Пояснения к столбцам:

Ветер - указаны скорость ветра в м/с - средняя за 10 мин, порывы в срок и между сроками (в фигурных скобках) и направление, откуда дует ветер: С - северный, СВ - северо-восточный, В - восточный, ЮВ - юго-восточный, Ю - южный, ЮЗ - юго-западный, З - западный, СЗ - северо-западный.
Видимость - горизонтальная дальность видимости в метрах или километрах. При видимости от 1 до 10 км при отсутствии осадков обычно наблюдается дымка, при ухудшении видимости до 1 км и менее - туман. В сухую погоду видимость может ухудшаться дымом, пылью или мглою.
Явления - указаны атмосферные явления, наблюдавшиеся в срок или в последний час перед сроком; фигурными скобками обозначены явления, наблюдавшиеся между сроками (за 1-3 часа до срока); квадратными скобками обозначены град или гололедные отложения с указанием их диаметра в мм.
Облачность - указаны через наклонную черту общая и нижняя облачность в баллах и высота нижней границы облаков в метрах; квадратными скобками обозначены формы облаков: Ci - перистые, Cs - перисто-слоистые, Cc - перисто-кучевые, Ac - высококучевые, As - высокослоистые, Sc - слоисто-кучевые, Ns - слоисто-дождевые, Cu - кучевые, Cb - кучево-дождевые. Подробнее классификацию облаков см. в Атласе облаков (PDF).
T - Температура воздуха - температура, измеренная на высоте 2 м над землей.
Td - Температура точки росы - температура, при понижении до которой содержащийся в воздухе водяной пар достигнет насыщения.
f - Относительная влажность воздуха - влажноcть воздуха, измеренная на высоте 2 м над землей.
Te - Эффективная температура - температура, которую ощущает одетый по сезону человек в тени. Характеристика душности погоды. При расчете учитывается влияние влажности воздуха и скорости ветра на теплоощущения человека.
Tes - Эффективная температура на солнце - температура, которую ощущает человек, с поправкой на солнечный нагрев. Характеристика знойности погоды. Зависит от высоты солнца над горизонтом, облачности и скорости ветра. Ночью, в пасмурную погоду, а также при ветре 12 м/с и более поправка равна нулю.
P - Атмосферное давление - приведенное к уровню моря атмосферное давление.
Po - Атмосферное давление - измеренное на уровне метеостанции атмосферное давление.
Tmin - Минимальная температура - минимум температуры воздуха на высоте 2 м над землей.
Tmax - Максимальная температура - максимум температуры воздуха на высоте 2 м над землей.
R - Количество осадков - Количество выпавших осадков за период времени, мм. При наведении курсора мыши на число - период времени, за который выпало указанное количество осадков.
R24 - Количество осадков - Количество выпавших осадков за 24 часа, мм.
S - Снежный покров - Высота снежного покрова, см. При наведении курсора мыши на число - состояние снежного покрова и степень покрытия местности в баллах.